DateTimeUTC,F1_A11,F1_S11,BsB_S11,BsG_S11,BsR_S11,BbsB_S11,BbsG_S11,BbsR_S11,BaB_A11,BaG_A11,BaR_A11,Tu_S11,T_S11,Uu_S11,U_S11,P_S11,T1_A11
2021-01-04T16:00:00Z,00000200,21000000,,,,,,,0000.11,-000.24,0000.24,15.8,23.1,,00.0,0636.0,30.7
2021-01-04T16:01:00Z,00000200,21000000,,,,,,,0000.15,0000.17,-000.40,15.9,23.1,,00.0,0636.0,30.7
2021-01-04T16:02:00Z,00000200,21000000,,,,,,,-000.48,-000.38,0000.29,15.9,23.1,,00.0,0636.0,30.7
2021-01-04T16:03:00Z,00000200,61000000,,,,,,,0000.13,0000.08,-000.17,15.9,23.1,,00.0,0636.0,30.7
2021-01-04T16:04:00Z,00000200,41000000,-000.53,-000.09,-000.12,0000.02,0000.12,-000.14,-000.29,-000.10,-000.29,16.1,23.0,,00.0,0636.8,30.7
2021-01-04T16:05:00Z,00000200,01000000,-000.08,0000.05,0000.44,0000.19,0000.00,0000.39,0000.04,-000.09,0000.27,16.1,22.9,,00.0,0636.9,30.6
2021-01-04T16:06:00Z,00000200,01000000,-000.15,0000.08,-000.28,0000.47,-000.01,-000.34,0000.09,0000.38,-000.17,16.0,22.8,,00.0,0636.9,30.6
2021-01-04T16:07:00Z,00000200,01000000,0000.59,0000.20,0000.24,0000.35,-000.21,0000.08,0000.07,-000.44,-000.27,16.0,22.8,,00.0,0636.9,30.6
2021-01-04T16:08:00Z,00000200,01000000,0000.60,0000.14,0000.08,0000.07,0000.05,0000.07,-000.16,-000.09,0000.03,15.9,22.8,,00.0,0636.9,30.6
2021-01-04T16:09:00Z,00000200,01000000,0000.58,0000.51,0000.19,-000.09,0000.29,0000.28,0000.29,0000.44,0000.14,15.9,22.7,,00.0,0637.0,30.6
2021-01-04T16:10:00Z,00000200,01000000,-000.51,0000.22,-000.11,0000.05,0000.22,0000.00,0000.25,0000.26,0000.30,15.9,22.7,,00.0,0637.0,30.6
2021-01-04T16:11:00Z,00000200,01000000,0000.19,0000.18,0000.07,0000.27,-000.03,-000.02,-000.12,-000.00,0000.13,15.9,22.7,,00.0,0637.0,30.6
2021-01-04T16:12:00Z,00000200,01000000,0000.39,0000.06,-000.03,0000.07,0000.10,-000.27,0000.26,0000.28,0000.06,16.0,22.8,,00.0,0637.0,30.6
2021-01-04T16:13:00Z,00000200,01000000,0000.18,0000.11,-000.11,0000.53,0000.14,0000.04,0000.11,-000.11,0000.43,16.1,22.8,,00.0,0637.0,30.7
2021-01-04T16:14:00Z,00000200,01000000,0000.09,0000.32,0000.18,0000.26,0000.34,0000.03,-000.04,0000.06,0000.08,16.1,22.8,,00.0,0637.0,30.7
2021-01-04T16:15:00Z,00000200,01000000,-000.15,0000.02,0000.12,0000.00,0000.03,0000.09,0000.08,0000.15,-000.29,16.2,22.9,,00.0,0637.0,30.7
2021-01-04T16:16:00Z,00000200,01000000,0000.25,0000.34,-000.07,0000.38,0000.21,0000.14,0000.13,-000.06,-000.21,16.3,22.9,,00.0,0637.1,30.7
2021-01-04T16:17:00Z,00000200,01000000,-000.30,0000.05,0000.14,0000.40,0000.12,-000.00,-000.30,-000.24,0000.09,16.3,22.9,,00.0,0637.0,30.7
2021-01-04T16:18:00Z,00000200,01000000,-000.40,0000.08,-000.03,0000.08,0000.10,-000.13,0000.08,0000.10,0000.05,16.2,22.9,,00.0,0637.1,30.7
2021-01-04T16:19:00Z,00000200,01000000,0000.27,0000.41,-000.01,0000.26,-000.12,-000.01,-000.26,-000.03,-000.25,16.2,22.8,,00.0,0637.1,30.6
2021-01-04T16:20:00Z,00000200,01000000,0000.34,0000.19,0000.19,0000.28,-000.06,0000.08,0000.01,-000.18,-000.00,16.1,22.8,,00.0,0637.1,30.6
2021-01-04T16:21:00Z,00000200,01000000,0000.16,0000.09,0000.44,-000.58,-000.23,0000.10,0000.02,-000.04,-000.14,16.0,22.8,,00.0,0637.1,30.6
2021-01-04T16:22:00Z,00000200,01000000,-000.16,0000.28,0000.08,-000.02,-000.03,0000.03,-000.11,0000.18,-000.03,16.0,22.8,,00.0,0637.1,30.6
2021-01-04T16:23:00Z,00000200,01000000,0000.29,0000.18,-000.01,0000.35,-000.03,-000.03,0000.03,-000.09,0000.30,15.9,22.7,,00.0,0637.1,30.6
2021-01-04T16:24:00Z,00000200,01000000,-000.51,0000.17,0000.05,0000.21,-000.04,0000.07,0000.15,0000.10,0000.13,15.9,22.7,,00.0,0637.1,30.6
2021-01-04T16:25:00Z,00000200,01000000,0000.06,-000.09,0000.35,0000.16,0000.05,-000.07,0000.18,0000.27,-000.26,15.9,22.7,,00.0,0637.1,30.6
2021-01-04T16:26:00Z,00000200,01000000,-000.14,0000.04,0000.21,0000.40,-000.09,-000.15,0000.22,-000.15,-000.08,15.9,22.7,,00.0,0637.1,30.6
2021-01-04T16:27:00Z,00000200,01000000,-000.27,-000.02,0000.02,0000.14,0000.08,0000.02,-000.08,0000.09,0000.45,16.0,22.7,,00.0,0637.1,30.6
2021-01-04T16:28:00Z,00000200,01000000,0000.22,0000.17,0000.25,0000.25,0000.07,0000.18,0000.06,-000.01,-000.01,16.1,22.7,,00.0,0637.2,30.7
2021-01-04T16:29:00Z,00000200,01000000,-001.02,0000.78,-000.08,0000.56,-000.06,0000.02,0000.18,0000.34,0000.24,16.1,22.8,,00.0,0637.2,30.7
2021-01-04T16:30:00Z,00000200,01000000,-000.03,0000.18,0000.08,0000.24,-000.17,0000.04,-000.02,-000.22,-000.25,16.2,22.8,,00.0,0637.2,30.7
2021-01-04T16:31:00Z,00000200,01000000,0000.14,0000.08,0000.04,0000.29,0000.03,0000.15,0000.09,0000.05,0000.15,16.3,22.9,,00.0,0637.2,30.7
2021-01-04T16:32:00Z,00000200,01000000,0000.21,0000.28,0000.24,0000.65,0000.11,0000.13,-000.39,-000.17,-000.37,16.3,22.9,,00.0,0637.3,30.7
2021-01-04T16:33:00Z,00000200,01000000,-000.03,0000.33,0000.31,0000.57,0000.22,0000.22,0000.10,-000.11,0000.09,16.3,22.9,,00.0,0637.3,30.7
2021-01-04T16:34:00Z,00000200,01000000,0000.58,0000.08,0000.28,0000.20,-000.08,-000.01,-000.04,0000.09,-000.30,16.2,22.8,,00.0,0637.3,30.7
2021-01-04T16:35:00Z,00000200,01000000,-000.08,0000.02,0000.22,-000.27,0000.08,0000.18,-000.13,-000.18,0000.06,16.1,22.8,,00.0,0637.3,30.6
2021-01-04T16:36:00Z,00000200,01000000,-000.04,0000.05,0000.23,-000.16,0000.07,0000.13,0000.15,-000.15,0000.05,16.1,22.8,,00.0,0637.4,30.6
2021-01-04T16:37:00Z,00000200,01000000,0000.11,0000.17,0000.33,-000.10,-000.02,0000.17,-000.18,0000.15,0000.03,16.0,22.8,,00.0,0637.4,30.6
2021-01-04T16:38:00Z,00000200,01000000,0000.09,0000.16,0000.12,0000.25,0000.19,-000.07,0000.04,-000.01,0000.17,16.0,22.7,,00.0,0637.3,30.6
2021-01-04T16:39:00Z,00000200,01000000,-000.52,0000.22,0000.23,-000.12,0000.02,0000.23,0000.23,0000.42,-000.29,15.9,22.7,,00.0,0637.3,30.6
2021-01-04T16:40:00Z,00000200,01000000,-000.13,0000.20,0000.33,0000.06,-000.04,-000.00,-000.08,-000.07,0000.15,15.9,22.7,,00.0,0637.3,30.6
2021-01-04T16:41:00Z,00000200,01000000,0000.03,0000.17,0000.06,0000.41,0000.38,0000.04,0000.04,-000.26,0000.08,15.9,22.7,,00.0,0637.3,30.6
2021-01-04T16:42:00Z,00000200,01000000,0000.70,-000.03,0000.04,0000.23,0000.20,0000.18,0000.22,0000.12,0000.50,16.0,22.7,,00.0,0637.4,30.6
2021-01-04T16:43:00Z,00000200,01000000,0000.12,0000.15,0000.24,0000.13,-000.06,0000.01,0000.24,0000.22,-000.08,16.1,22.7,,00.0,0637.4,30.7
2021-01-04T16:44:00Z,00000200,01000000,-000.36,0000.52,-000.01,-000.13,0000.18,-000.15,0000.14,0000.01,-000.16,16.2,22.8,,00.0,0637.4,30.7
2021-01-04T16:45:00Z,00000200,01000000,-000.14,-000.02,0000.29,-000.24,-000.03,0000.09,0000.04,-000.06,-000.13,16.3,22.8,,00.0,0637.4,30.7
2021-01-04T16:46:00Z,00000200,01000000,0000.56,0000.12,-000.01,0000.56,0000.17,-000.15,0000.05,-000.03,0000.05,16.3,22.9,,00.0,0637.4,30.7
2021-01-04T16:47:00Z,00000200,01000000,-000.09,0000.13,0000.29,0000.31,0000.24,0000.03,-000.46,0000.30,-000.10,16.4,22.9,,00.0,0637.4,30.7
2021-01-04T16:48:00Z,00000200,01000000,0001.10,0000.15,0000.37,0000.43,0000.15,0000.11,0000.14,-000.51,0000.05,16.3,22.9,,00.0,0637.5,30.7
2021-01-04T16:49:00Z,00000200,01000000,-000.31,0000.37,-000.12,-000.07,0000.48,-000.20,0000.08,0000.06,-000.27,16.3,22.9,,00.0,0637.5,30.7
2021-01-04T16:50:00Z,00000200,01000000,0000.40,0000.03,0000.24,-000.44,-000.08,0000.12,-000.26,-000.04,0000.05,16.2,22.8,,00.0,0637.5,30.6
2021-01-04T16:51:00Z,00000200,01000000,0000.32,0000.25,-000.01,-000.05,0000.11,-000.14,0000.07,-000.01,-000.02,16.2,22.8,,00.0,0637.5,30.6
2021-01-04T16:52:00Z,00000200,01000000,0000.54,-000.15,0000.10,0000.06,-000.05,0000.05,-000.07,-000.12,-000.12,16.1,22.8,,00.0,0637.5,30.6
2021-01-04T16:53:00Z,00000200,01000000,-000.16,0000.22,0000.26,0000.09,-000.22,-000.05,-000.14,0000.21,0000.18,16.0,22.8,,00.0,0637.5,30.6
2021-01-04T16:54:00Z,00000200,01000000,0000.21,0000.32,0000.27,0000.09,0000.11,-000.16,0000.47,0000.30,-000.16,16.0,22.7,,00.0,0637.5,30.6
2021-01-04T16:55:00Z,00000200,01000000,0000.08,0000.34,0000.22,0000.05,0000.17,-000.02,0000.11,-000.19,0000.29,16.0,22.7,,00.0,0637.6,30.6
2021-01-04T16:56:00Z,00000200,01000000,-000.22,-000.16,0000.12,-000.18,0000.18,-000.01,-000.04,0000.27,-000.03,16.0,22.7,,00.0,0637.5,30.6
2021-01-04T16:57:00Z,00000200,41000000,,,,,,,0000.61,0000.48,0000.67,16.1,22.8,,00.0,0637.5,30.6
2021-01-04T16:58:00Z,00000200,61000000,,,,,,,-000.20,-000.16,-000.45,15.8,23.0,,00.0,0636.6,30.7
2021-01-04T16:59:00Z,00000200,21000000,,,,,,,-000.21,-000.37,0000.15,15.8,23.1,,00.0,0636.6,30.7
